User: anonymous   Login
Location: Unspecified
(49.6138°N, 13.6004°E)
Time: 02:43:09
(UTC+01:00)
Language:

ASTRO F (AKARI) - Orbit

View from above orbital plane
View from above orbital plane
View from above satellite
View from above satellite

Ground track
Ground track

The orbit data is extracted from the following two-line orbital elements,

1 28939U 06005A   19045.84138886  .00002213  00000-0  64906-4 0  9994
2 28939  98.1914 321.6418 0097668 231.2901 127.9575 15.31930867706051
Epoch (UTC): 14 February 2019 20:11:35
Eccentricity: 0.0097668
inclination: 98.1914°
perigee height: 403 km
apogee height: 537 km
right ascension of ascending node: 321.6418°
argument of perigee: 231.2901°
revolutions per day: 15.31930867
mean anomaly at epoch: 127.9575°
orbit number at epoch: 70605

The dashed part of the orbit path shows where the satellite is in the earth's shadow,  

DLR